Location: Remedello Sotto
(45.2500°N, 10.3667°E)
Time: 04:17:56
(UTC+00:00)

Cosmos 2278 Rocket - Pass Details

Date: 03 February 2023
Orbit: 841 x 845 km, 71.0° (Epoch: 29 March)

Event Time Altitude Azimuth Distance (km) Brightness Sun altitude
Rises 18:12:21 0° 341° (NNW) 3,415 5.5 -18.6°
Reaches altitude 10° 18:15:27 10° 358° (N) 2,476 4.6 -19.1°
Enters shadow 18:18:53 20° 35° (NE) 1,850 3.6 -19.7°
